Location: Mason-Dixon Star Party
(40.0361°N, 76.9958°W)
Time: 03:22:47
(UTC-04:00)

Daily predictions for brighter satellites

Satellite Brightness Start Highest point End
(mag) Time Altitude Azimuth Time Altitude Azimuth Time Altitude Azimuth
Cosmos 2369 Rocket 2.3 00:11:23 68° WNW 00:11:23 68° WNW 00:16:54 10° NNE
Lacrosse 5 3.1 00:10:52 23° W 00:13:29 38° NW 00:18:15 10° NNE
Cosmos 1605 Rocket 3.9 00:18:36 80° WSW 00:18:44 81° W 00:25:11 10° N
Cosmos 2173 Rocket 4.5 00:34:21 51° ENE 00:34:21 51° ENE 00:39:55 10° NNE
ALOS 2 4.0 00:35:43 36° N 00:35:43 36° N 00:38:22 10° N
Cosmos 2123 Rocket 4.5 00:31:01 10° NNW 00:36:58 50° W 00:36:58 50° W
Cosmos 1153 Rocket 4.5 00:39:08 80° NW 00:39:08 80° NW 00:45:17 10° N
Cosmos 1943 Rocket 2.6 00:40:43 55° NNE 00:40:43 55° NNE 00:45:04 10° NNE
MOS 1-B Rocket 4.1 00:48:55 73° ENE 00:48:55 73° ENE 00:55:43 10° N
Cosmos 968 Rocket 4.2 00:58:54 10° NNW 01:02:45 50° N 01:02:45 50° N
H-2A R/B 4.1 01:04:23 10° N 01:07:12 35° NNW 01:07:12 35° NNW
ATLAS 2AS CENTAUR R/B 2.8 01:10:01 10° NW 01:18:05 76° WSW 01:18:13 76° SW
ATLAS 3B CENTAUR R/B 4.4 01:18:30 49° SSE 01:18:30 49° SSE 01:42:22 10° E
ATLAS CENTAUR R/B 4.5 01:21:49 10° ENE 01:21:49 10° ENE 01:21:58 10° ENE
CZ-2C R/B 3.8 01:31:03 47° N 01:31:03 47° N 01:34:33 10° N
Cosmos 2233 Rocket 4.0 01:56:13 68° ENE 01:56:13 68° ENE 02:02:01 10° NNE
CZ-2C R/B 3.5 01:51:38 10° N 01:55:54 43° NW 01:55:54 43° NW
Cosmos 2098 Rocket 4.2 01:59:12 72° WSW 01:59:31 73° W 02:07:10 10° N
Cosmos 2082 4.5 01:57:40 10° N 02:03:04 44° ENE 02:03:45 42° E
Meteor 2-9 Rocket 4.4 02:06:05 75° NNE 02:06:05 75° NNE 02:11:21 10° N
Cosmos 2219 4.5 02:06:30 10° NW 02:09:42 29° WNW 02:09:42 29° WNW
Cosmos 2227 Rocket 2.6 02:06:11 10° NNW 02:11:46 55° ENE 02:12:07 55° ENE
SeaSat 1 3.0 02:14:59 54° NE 02:14:59 54° NE 02:19:35 10° NNW
Cosmos 2228 4.4 02:18:29 36° N 02:18:29 36° N 02:21:05 10° N
BREEZE-M DEB (TANK) 4.1 02:20:47 58° E 02:20:47 58° E 02:23:39 10° ENE
Cosmos 1943 Rocket 4.3 02:22:12 14° WNW 02:23:56 15° NW 02:27:11 10° NNW
NPP 4.4 02:22:04 10° NNE 02:27:09 42° E 02:27:09 42° E
Meteor 1-15 Rocket 4.4 02:31:04 63° WNW 02:31:04 63° WNW 02:36:41 10° N
Cosmos 2278 3.7 02:32:26 80° N 02:32:26 80° N 02:37:51 10° NNE
Cosmos 2297 Rocket 2.6 02:27:08 10° NNW 02:32:43 58° ENE 02:33:38 52° ESE
Cosmos 2369 3.6 02:34:50 82° NNE 02:34:50 82° NNE 02:40:17 10° NNE
Meteor 2-5 Rocket 4.1 02:34:22 10° N 02:40:15 64° ENE 02:41:10 56° ESE
NOSS 3-4 (A) 4.2 02:34:18 10° NNW 02:41:14 62° NE 02:48:32 10° SE
NOSS 3-4 (C) 4.2 02:34:24 10° NNW 02:41:22 61° NE 02:48:42 10° SE
SL-08 R/B 3.7 02:45:13 56° ENE 02:45:13 56° ENE 02:49:43 10° N
Cosmos 2150 Rocket 3.9 02:46:47 10° NNW 02:51:41 79° NNW 02:51:41 79° NNW
Cosmos 405 Rocket 4.0 02:48:18 10° N 02:51:02 41° N 02:51:02 41° N
Cosmos 1898 Rocket 3.5 02:48:50 10° NNW 02:53:57 81° NW 02:53:57 81° NW
Cosmos 841 Rocket 4.3 02:54:32 39° ESE 02:55:00 40° ESE 02:59:54 10° NE
ATLAS CENTAUR R/B 1.9 02:58:09 71° NNW 02:58:09 71° NNW 03:02:55 10° NNE
Cosmos 1763 Rocket 3.9 02:58:47 49° ESE 02:59:08 50° ESE 03:04:08 10° NNE
ERS-2 3.7 02:56:15 10° NNE 02:58:56 32° ENE 02:58:56 32° ENE
Cosmos 2034 Rocket 4.0 02:58:39 59° SSE 02:59:49 76° E 03:06:00 10° N
Cosmos 1812 Rocket 4.3 03:00:57 47° NNW 03:00:57 47° NNW 03:04:27 10° N
Cosmos 1937 Rocket 3.4 02:57:08 10° NNW 03:02:20 81° ENE 03:02:42 75° ESE
BREEZE-M DEB (TANK) 4.4 02:57:34 10° WNW 03:00:14 22° NW 03:00:14 22° NW
Geosat 4.4 02:58:31 10° NE 03:03:26 52° ESE 03:03:42 51° SE
Cosmos 1656 3.5 03:03:53 76° S 03:04:21 87° ESE 03:10:03 10° NNE
Cosmos 1766 4.4 03:06:27 39° E 03:06:27 39° E 03:09:50 10° NNE
IRS-1C 4.1 03:07:57 10° NNE 03:13:19 77° ESE 03:14:05 64° SSE
CZ-2D R/B 3.6 03:09:11 10° NE 03:13:56 30° E 03:16:18 22° SE
Meteor 1-24 Rocket 3.9 03:08:36 10° N 03:14:22 72° E 03:16:28 41° SSE
Meteor 1-22 Rocket 4.5 03:15:41 49° SSE 03:17:21 73° E 03:23:27 10° NNE
SL-16 R/B 3.4 03:13:59 11° SE 03:19:32 47° ENE 03:25:24 10° N
IRAS Rocket 4.2 03:14:44 10° NNE 03:20:24 87° WNW 03:21:29 61° SSW
ARIANE 5 R/B 3.2 03:17:52 10° NNE 03:22:51 47° E 03:24:27 36° SE
Cosmos 1441 Rocket 4.0 03:20:33 10° N 03:24:26 48° ENE 03:25:00 45° ESE
Meteor 2-12 Rocket 4.3 03:29:03 48° S 03:30:53 89° E 03:36:59 10° N
Milstar 3 Cent rocket 3.6 03:33:20 22° SSE 03:33:20 22° SSE 03:36:52 10° ESE
Cosmos 1707 4.1 03:30:14 10° NNW 03:32:37 29° NW 03:32:37 29° NW
Cosmos 1697 Rocket 2.7 03:37:28 50° WSW 03:38:47 67° WNW 03:44:27 10° NNE
ADEOS 3.5 03:33:51 10° N 03:39:05 76° WNW 03:40:16 53° SW
Cosmos 1758 4.0 03:41:25 41° SE 03:42:17 50° E 03:46:11 10° NNE
Cosmos 1634 Rocket 4.3 03:40:41 27° SSE 03:44:14 64° E 03:50:27 10° NNE
Okean 3 Rocket 4.4 03:40:50 10° NNW 03:44:16 36° WNW 03:44:16 36° WNW
Cosmos 1953 2.8 03:44:28 45° SE 03:45:21 57° E 03:49:22 10° NNE
Spot 4 Rocket 4.0 03:40:30 10° N 03:45:41 75° WNW 03:47:03 49° SW
Resurs 1-4 Rocket 2.4 03:41:14 10° NNE 03:46:27 60° E 03:48:51 31° S
Cosmos 1980 Rocket 2.1 03:46:20 45° SSW 03:48:10 89° ESE 03:53:52 10° NNE
BREEZE-M R/B 4.2 03:43:48 10° WNW 03:49:49 53° SW 03:56:35 10° SSE
Cosmos 1076 Rocket 3.4 03:47:54 10° NNW 03:52:13 70° W 03:52:47 60° SW
SeaSat 1 4.4 03:54:47 14° WNW 03:54:47 14° WNW 03:55:59 10° WNW
IRS-1D 3.4 03:50:03 10° NNE 03:55:03 88° E 03:56:57 39° SSW
Cosmos 2227 Rocket 3.8 03:51:22 10° NW 03:53:53 18° W 03:53:53 18° W
Cosmos 1092 Rocket 3.9 03:50:33 10° N 03:56:52 80° W 04:00:54 24° S
Cosmos 2322 Rocket 3.0 03:58:01 21° SSE 04:01:26 44° ESE 04:06:43 10° NE
Cosmos 990 Rocket 4.5 03:57:58 10° NW 04:02:50 39° WSW 04:03:26 37° WSW
Cosmos 332 Rocket 4.1 04:02:43 30° S 04:04:58 61° ESE 04:09:45 10° NNE
Cosmos 1500 Rocket 4.4 04:03:27 10° N 04:07:44 49° E 04:11:56 10° SSE
Cosmos 1743 Rocket 3.5 04:09:16 10° N 04:13:38 86° E 04:16:36 20° S
USA 161 3.7 04:16:46 15° NW 04:16:46 15° NW 04:17:33 10° NW
Cosmos 2297 Rocket 3.7 04:12:26 10° WNW 04:15:22 18° W 04:15:22 18° W
MOS 1-B 4.3 04:10:38 10° NNE 04:16:28 86° ESE 04:20:25 22° SSW
Cosmos 1378 4.3 04:15:51 10° NNW 04:18:49 27° W 04:18:49 27° W
UNK 3.8 04:17:21 28° SSW 04:19:39 57° W 04:24:16 10° NNW
Cosmos 372 Rocket 4.1 04:15:41 10° NNW 04:20:47 72° ENE 04:25:52 10° SSE
Cosmos-2242 3.2 04:19:53 36° SW 04:21:15 51° W 04:25:28 10° N
Aureole 1 Rocket 4.3 04:18:20 20° S 04:22:39 76° ESE 04:30:19 10° NNE
Cosmos 371 Rocket 3.6 04:20:31 21° S 04:23:41 62° ESE 04:28:26 10° NNE
RESURS DK-1 2.4 04:22:01 10° NNW 04:26:10 81° ENE 04:30:18 10° SSE
SL-24 R/B - RUBIN 2 4.3 04:23:41 26° SSW 04:27:05 89° WNW 04:33:31 10° NNE
Cosmos 783 Rocket 4.5 04:25:12 26° SSW 04:28:17 76° WNW 04:33:38 10° NNE
Cosmos 1437 2.9 04:25:10 10° NNW 04:28:26 54° W 04:29:22 38° SSW
BREEZE-M DEB (TANK) 3.6 04:26:11 10° NW 04:28:48 36° NNE 04:33:10 10° E
USA 81 4.0 04:25:53 18° S 04:29:55 85° W 04:35:14 10° N
GPS 2-04 Rocket1 3.4 04:30:01 31° SSW 04:30:33 33° SSW 04:34:05 10° SE
Okean O Rocket 2.1 04:26:44 10° NNE 04:31:05 59° E 04:34:58 13° S
Cosmos 1470 2.9 04:29:40 19° S 04:32:25 74° E 04:36:25 10° NNE
MTI 3.7 04:30:40 25° S 04:32:27 71° W 04:35:45 10° NNW
ERS-2 4.2 04:31:02 10° NNW 04:33:12 15° WNW 04:33:46 14° WNW
CZ-2C R/B 4.1 04:29:53 10° SSE 04:34:30 67° ENE 04:39:05 10° N
Cosmos 2279 Rocket 4.0 04:30:19 13° S 04:35:56 86° W 04:42:14 10° N
SL-16 R/B 2.2 04:32:02 19° SSW 04:36:14 82° ESE 04:41:56 10° NNE
ATLAS CENTAUR R/B 4.1 04:35:20 10° WNW 04:37:51 14° NW 04:40:20 10° N
Cosmos 1125 Rocket 3.9 04:37:25 10° NNW 04:42:17 41° WSW 04:47:07 10° S
PSLV R/B 3.7 04:41:06 10° NNE 04:44:56 87° ESE 04:47:58 15° SSW
DELTA 2 R/B (1) 4.1 04:42:07 21° SW 04:45:35 47° SSE 04:50:56 10° E
Cosmos 2263 Rocket 3.1 04:41:05 10° NNW 04:46:31 50° ENE 04:51:54 10° SE
DELTA 2 R/B (2) 3.4 04:46:38 32° WSW 04:47:33 62° S 04:49:28 10° ESE
Abrixas 3.5 04:51:14 26° SW 04:51:29 26° SW 04:54:06 10° SSE
IRS-1C Rocket 4.1 04:46:35 10° N 04:51:52 79° WNW 04:57:00 11° SSW
ADEOS II 3.9 04:47:27 10° NE 04:52:01 29° E 04:56:34 10° SSE
CZ-2D R/B 3.0 04:49:06 10° N 04:53:59 34° WNW 04:57:38 16° SW
CZ-2D R/B 3.9 04:50:35 10° N 04:54:48 49° WNW 04:58:11 16° SW
Cosmos 1461 3.2 04:52:38 10° NW 04:56:26 37° WSW 05:00:05 10° S
UNKNOWN OBJECT B 3.8 04:55:04 10° N 04:58:26 29° WNW 05:00:35 17° WSW
CZ-4B R/B 3.2 04:53:03 10° NNE 04:58:37 87° ESE 05:04:01 10° SSW
Lacrosse 5 rocket 4.1 04:57:02 10° N 04:59:26 16° NNE 05:01:49 10° ENE
Cosmos 1842 Rocket 4.2 04:57:13 16° SW 05:00:22 40° WNW 05:04:36 10° N
ARIANE 5 R/B 4.0 04:57:50 10° NNW 05:01:38 21° WNW 05:04:48 13° WSW
Cosmos 1544 4.2 05:00:02 18° WSW 05:01:54 27° WNW 05:05:03 10° NNW
Cosmos 540 Rocket 4.2 04:58:42 16° SW 05:02:18 36° WNW 05:07:05 10° N
Cosmos 2266 Rocket 4.4 04:57:07 10° N 05:03:16 67° E 05:09:29 10° SSE
SL-16 R/B 3.5 04:59:05 13° SW 05:03:21 26° W 05:08:25 10° NW
Cosmos 1733 3.4 05:01:58 13° SSW 05:05:14 52° W 05:08:59 10° N
PAYLOAD B 4.3 05:01:39 10° N 05:07:16 76° WNW 05:12:50 10° SSW
Cosmos 1655 Rocket 4.5 05:02:11 10° NNW 05:08:09 43° W 05:14:06 10° SSW
GEOS 3 Rocket 3.9 05:03:54 10° SSE 05:08:51 43° WSW 05:13:47 10° NW
Cosmos 1805 Rocket 4.1 05:04:46 10° N 05:09:05 62° E 05:13:25 10° SSE
CZ-4B R/B 2.7 05:05:28 10° N 05:09:20 76° WNW 05:13:01 10° SSW
Cosmos 967 Rocket 4.4 05:04:08 10° NW 05:10:27 68° WSW 05:16:40 10° SSE
Meteor 1-16 Rocket 4.4 05:04:51 10° S 05:10:47 85° E 05:16:43 10° N
Aureole 3 4.2 05:11:26 10° N 05:16:01 80° E 05:21:54 10° S
Okean-O 3.0 05:15:36 10° NNE 05:20:02 66° E 05:24:26 10° S
Sich 1 4.0 05:16:08 10° N 05:20:22 51° E 05:24:36 10° SSE
BREEZE-M DEB (TANK) 3.9 05:07:28 10° SW 05:21:51 71° SE 05:25:47 10° ENE
Cosmos 2151 3.3 05:17:49 10° NNW 05:21:59 48° W 05:26:07 10° SSW
Cosmos 1328 4.0 05:19:16 10° NNW 05:23:11 50° W 05:27:05 10° SSW
Cosmos 1680 Rocket 4.3 05:19:35 10° S 05:24:37 53° ESE 05:29:43 10° NNE
Resurs 1-4 Rocket 3.8 05:22:24 10° NNW 05:25:47 18° WNW 05:29:09 10° WSW
MOZ.5/SAFIR/RUBIN 5/SL-8 4.3 05:21:24 10° SSW 05:25:48 39° W 05:30:12 10° NNW
Cosmos 304 Rocket 4.0 05:21:37 10° S 05:26:25 73° ESE 05:31:14 10° NNE
Lacrosse 5 4.2 05:23:02 10° NNW 05:27:24 27° NNE 05:31:44 10° E
USA 116 3.5 05:28:52 10° SSE 05:32:04 79° ENE 05:35:36 10° N
Cosmos 2360 Rocket 2.2 05:27:02 10° SSW 05:32:39 88° WNW 05:38:20 10° NNE
Thor Agena Rocket 3.7 05:28:00 10° S 05:32:51 48° W 05:37:45 10° NNW
Cosmos 1980 Rocket 4.1 05:29:51 10° W 05:32:59 15° NW 05:36:08 10° NNW
Cosmos 1674 4.2 05:31:34 10° NW 05:34:09 18° W 05:36:42 10° SW
